| time (UTC) | temp F | wind direction | speed MPH | gust MPH | rain 1hr in | rain 24hr in | rain mn in | humidity % | barometer mb |
| 20260505031518 | 78 | 300 | 0.0 | 0.0 | 0.00 | 0.00 | 0.00 | 86 | 1013.5 |
| 20260505030126 | 78 | 300 | 0.0 | 0.0 | 0.00 | 0.00 | 0.00 | 86 | 1013.5 |
| 20260505024510 | 78 | 298 | 0.0 | 0.0 | 0.00 | 0.00 | 0.00 | 85 | 1013.5 |
| 20260505023056 | 78 | 297 | 0.0 | 0.0 | 0.00 | 0.00 | 0.00 | 85 | 1013.4 |
| 20260505021514 | 79 | 297 | 0.0 | 0.0 | 0.00 | 0.00 | 0.00 | 85 | 1013.2 |
| 20260505020108 | 79 | 295 | 0.0 | 0.0 | 0.00 | 0.00 | 0.00 | 85 | 1013.0 |
| 20260505014533 | 79 | 286 | 0.0 | 0.0 | 0.00 | 0.00 | 0.00 | 84 | 1013.0 |
| 20260505013107 | 80 | 286 | 0.0 | 0.0 | 0.00 | 0.00 | 0.00 | 84 | 1012.9 |
| 20260505011533 | 80 | 281 | 0.0 | 0.0 | 0.00 | 0.00 | 0.00 | 83 | 1012.8 |
| 20260505010105 | 81 | 276 | 0.0 | 0.0 | 0.00 | 0.00 | 0.00 | 82 | 1012.7 |
| 20260505004540 | 82 | 163 | 0.0 | 0.0 | 0.00 | 0.00 | 0.00 | 80 | 1012.7 |
| 20260505003119 | 83 | 163 | 0.0 | 2.0 | 0.00 | 0.00 | 0.00 | 79 | 1012.6 |
| 20260505001526 | 83 | 166 | 3.0 | 6.0 | 0.00 | 0.00 | 0.00 | 79 | 1012.3 |
| 20260505000109 | 83 | 174 | 3.0 | 5.0 | 0.00 | 0.00 | 0.00 | 79 | 1012.3 |
| 20260504234531 | 83 | 186 | 2.0 | 5.0 | 0.00 | 0.00 | 0.00 | 78 | 1012.3 |
| 20260504233120 | 83 | 171 | 0.0 | 5.0 | 0.00 | 0.00 | 0.00 | 78 | 1012.2 |
| 20260504231543 | 84 | 178 | 2.0 | 5.0 | 0.00 | 0.00 | 0.00 | 78 | 1012.0 |
| 20260504230133 | 84 | 158 | 1.0 | 4.0 | 0.00 | 0.00 | 0.00 | 77 | 1012.1 |
| 20260504223015 | 85 | 165 | 3.0 | 8.0 | 0.00 | 0.00 | 0.00 | 75 | 1011.8 |
| 20260504221605 | 85 | 163 | 3.0 | 8.0 | 0.00 | 0.00 | 0.00 | 75 | 1011.6 |
| 20260504220021 | 86 | 165 | 6.0 | 10.0 | 0.00 | 0.00 | 0.00 | 74 | 1011.5 |
| 20260504214613 | 86 | 172 | 5.0 | 11.0 | 0.00 | 0.00 | 0.00 | 73 | 1011.2 |
| 20260504213029 | 86 | 136 | 5.0 | 14.0 | 0.00 | 0.00 | 0.00 | 73 | 1011.0 |
| 20260504211653 | 87 | 138 | 7.0 | 10.0 | 0.00 | 0.00 | 0.00 | 72 | 1011.0 |
| 20260504210036 | 88 | 148 | 5.0 | 11.0 | 0.00 | 0.00 | 0.00 | 72 | 1011.0 |
| 20260504204619 | 88 | 148 | 8.0 | 11.0 | 0.00 | 0.00 | 0.00 | 72 | 1011.0 |
| 20260504203111 | 88 | 163 | 7.0 | 12.0 | 0.00 | 0.00 | 0.00 | 72 | 1011.0 |
| 20260504201517 | 87 | 183 | 7.0 | 12.0 | 0.00 | 0.00 | 0.00 | 72 | 1010.9 |
| 20260504200111 | 88 | 180 | 5.0 | 12.0 | 0.00 | 0.00 | 0.00 | 71 | 1010.9 |
| 20260504194537 | 87 | 144 | 4.0 | 12.0 | 0.00 | 0.01 | 0.00 | 72 | 1010.9 |
| 20260504191608 | 88 | 159 | 7.0 | 15.0 | 0.00 | 0.01 | 0.00 | 70 | 1011.1 |
| 20260504190014 | 88 | 148 | 8.0 | 12.0 | 0.00 | 0.01 | 0.00 | 69 | 1011.1 |
| 20260504184611 | 89 | 153 | 4.0 | 12.0 | 0.00 | 0.01 | 0.00 | 69 | 1011.2 |
| 20260504183031 | 88 | 153 | 9.0 | 14.0 | 0.00 | 0.01 | 0.00 | 68 | 1011.3 |
| 20260504181622 | 89 | 169 | 8.0 | 15.0 | 0.00 | 0.01 | 0.00 | 68 | 1011.4 |
| 20260504180040 | 89 | 150 | 8.0 | 12.0 | 0.00 | 0.01 | 0.00 | 67 | 1011.6 |
| 20260504174631 | 90 | 134 | 7.0 | 12.0 | 0.00 | 0.01 | 0.00 | 69 | 1011.9 |
| 20260504173051 | 89 | 148 | 8.0 | 14.0 | 0.00 | 0.01 | 0.00 | 69 | 1012.2 |
| 20260504171501 | 88 | 135 | 9.0 | 14.0 | 0.00 | 0.01 | 0.00 | 70 | 1012.3 |
| 20260504150114 | 90 | 355 | 4.0 | 11.0 | 0.00 | 0.01 | 0.00 | 55 | 1012.9 |
| 20260504140130 | 88 | 227 | 5.0 | 9.0 | 0.00 | 0.01 | 0.00 | 63 | 1013.0 |
| 20260504100109 | 72 | 273 | 1.0 | 8.0 | 0.00 | 0.01 | 0.00 | 84 | 1012.7 |
| 20260504081613 | 73 | 267 | 4.0 | 7.0 | 0.00 | 0.01 | 0.00 | 84 | 1012.1 |
| 20260504070120 | 74 | 261 | 2.0 | 5.0 | 0.00 | 0.01 | 0.00 | 81 | 1011.9 |
| 20260504044509 | 76 | 275 | 3.0 | 6.0 | 0.00 | 0.01 | 0.00 | 79 | 1012.9 |
| 20260504043106 | 76 | 290 | 3.0 | 7.0 | 0.00 | 0.01 | 0.00 | 79 | 1013.3 |
| 20260504041534 | 77 | 282 | 5.0 | 8.0 | 0.00 | 0.01 | 0.00 | 79 | 1013.3 |
| 20260504040004 | 77 | 270 | 3.0 | 7.0 | 0.00 | 0.01 | 0.01 | 79 | 1013.4 |
| 20260504034623 | 77 | 277 | 3.0 | 7.0 | 0.00 | 0.01 | 0.01 | 79 | 1013.5 |
| 20260504033052 | 77 | 258 | 3.0 | 7.0 | 0.00 | 0.01 | 0.01 | 80 | 1013.8 |